This is the latest recevied weather packets stored in our database for station/object K6HN. If no packets are shown the sender has not sent any weather packets the latest 10 day(s).
| Time | Temp. | Humidity | Pressure | Rain* | Wind** | Luminosity | Snow |
|---|---|---|---|---|---|---|---|
| 1778022779 | 15.56° C | 52% | 1001.7 hPa | 0 mm | - | - | - |
| 1778021879 | 16.11° C | 52% | 1001.4 hPa | 0 mm | - | - | - |
| 1778020979 | 16.11° C | 51% | 1001.4 hPa | 0 mm | - | - | - |
| 1778020079 | 16.11° C | 50% | 1001.4 hPa | 0 mm | - | - | - |
| 1778019179 | 16.11° C | 53% | 1001.4 hPa | 0 mm | - | - | - |
| 1778018279 | 16.11° C | 53% | 1001.4 hPa | 0 mm | - | - | - |
| 1778017379 | 15.56° C | 54% | 1001.4 hPa | 0 mm | - | - | - |
| 1778016479 | 15.56° C | 53% | 1001.7 hPa | 0 mm | - | - | - |
| 1778015579 | 15° C | 53% | 1002 hPa | 0 mm | - | - | - |
| 1778014679 | 15.56° C | 54% | 1001.4 hPa | 0 mm | - | - | - |
| 1778013779 | 16.11° C | 54% | 1001.7 hPa | 0 mm | - | - | - |
| 1778012879 | 15.56° C | 54% | 1001.7 hPa | 0 mm | - | - | - |
| 1778011979 | 15° C | 54% | 1001.7 hPa | 0 mm | - | - | - |
| 1778011079 | 15° C | 53% | 1001.7 hPa | 0 mm | - | - | - |
| 1778010179 | 14.44° C | 52% | 1001.7 hPa | 0 mm | - | - | - |
| 1778009279 | 14.44° C | 52% | 1002 hPa | 0 mm | - | - | - |
| 1778008379 | 13.33° C | 53% | 1002 hPa | 0 mm | - | - | - |
| 1778007479 | 13.33° C | 53% | 1001.7 hPa | 0 mm | - | - | - |
| 1778006579 | 13.33° C | 54% | 1002 hPa | 0 mm | - | - | - |
| 1778005679 | 13.33° C | 52% | 1001.7 hPa | 0 mm | - | - | - |
| 1778004779 | 12.78° C | 53% | 1001.4 hPa | 0 mm | - | - | - |
| 1778003879 | 12.78° C | 53% | 1001.4 hPa | 0 mm | - | - | - |
| 1778002979 | 12.22° C | 52% | 1001.4 hPa | 0 mm | - | - | - |
| 1778002079 | 12.22° C | 51% | 1001.4 hPa | 0 mm | - | - | - |
| 1778001179 | 12.22° C | 52% | 1001.4 hPa | 0 mm | - | - | - |
* Rain latest hour (hover to see other rain measurements)
** Current wind speed in m/s (hover to see current wind gust speed)